Weather History for Petersburg, VA

Change the Weather History Date:

Monday, March 18, 2013

  Actual Average (KRIC) Record (KRIC)
Temperature  
Mean Temperature 40 °F 49 °F  
Max Temperature 42 °F 61 °F 84 °F (2011)
Min Temperature 37 °F 38 °F 18 °F (1967)
Degree Days  
Heating Degree Days 26 16  
Month to date heating degree days 336  
Since 1 July heating degree days 3272  
Cooling Degree Days 0 0  
Month to date cooling degree days 0  
Year to date cooling degree days 0  
Moisture  
Dew Point 38 °F    
Average Humidity 94    
Maximum Humidity 100    
Minimum Humidity 87    
Precipitation  
Precipitation 0.30 in 0.14 in 1.41 in (1897)
Month to date precipitation 2.28  
Year to date precipitation 8.08  
Snow  
Snow 0.00 in 0.00 in 0.10 in (1981)
Month to date snowfall 0.5  
Since 1 July snowfall 10.1  
Snow Depth -    
Sea Level Pressure  
Sea Level Pressure 30.13 in    
Wind  
Wind Speed 6 mph (NNE)    
Max Wind Speed 10 mph    
Max Gust Speed -    
Visibility 4 miles    
Events Rain    
T = Trace of Precipitation, MM = Missing Value Source: NWS Daily Summary

Daily Weather History Graph

Daily Weather History Graph

Search for Another Location

Airport:

Trip Planner

Search our weather history database for the weather conditions in past years. The results will help you decide how hot, cold, wet, or windy it might be!

Date:

Astronomy

Mar. 18, 2013 Rise Set
Actual Time 7:16 AM EDT 7:20 PM EDT
Civil Twilight 6:50 AM EDT 7:46 PM EDT
Nautical Twilight 6:20 AM EDT 8:16 PM EDT
Astronomical Twilight 5:49 AM EDT 8:47 PM EDT
Moon 11:21 AM EDT (3/18) 1:10 AM EDT (3/18)
Length of Visible Light 12h 55m
Length of Day
12h 04m
Waxing Crescent, 40% of the Moon is Illuminated
Mar 18
Waxing Crescent
Mar 19
First Quarter
Mar 27
Full
Apr 3
Last Quarter
Apr 10
New

Hourly Weather History & Observations

Time (EDT) Temp. Windchill Dew Point Humidity Pressure Visibility Wind Dir Wind Speed Gust Speed Precip Events Conditions
12:15 AM 39.2 °F 35.9 °F 37.4 °F 93% 30.25 in 5.0 mi NE 4.6 mph - 0.02 in Rain Light Rain
12:35 AM 39.2 °F 34.2 °F 37.4 °F 93% 30.25 in 5.0 mi NE 6.9 mph - 0.03 in   Light Drizzle
12:55 AM 39.2 °F 34.2 °F 37.4 °F 93% 30.24 in 5.0 mi ENE 6.9 mph - 0.03 in Rain Light Rain
1:15 AM 39.2 °F 35.0 °F 37.4 °F 93% 30.24 in 5.0 mi ENE 5.8 mph - N/A   Light Drizzle
1:35 AM 39.2 °F 33.6 °F 37.4 °F 93% 30.23 in 4.0 mi NE 8.1 mph - N/A   Overcast
1:55 AM 37.4 °F 31.4 °F 37.4 °F 100% 30.24 in 5.0 mi NE 8.1 mph - N/A Rain Light Rain
2:15 AM 37.4 °F 31.4 °F 37.4 °F 100% 30.24 in 4.0 mi NNE 8.1 mph - N/A   Light Drizzle
2:35 AM 37.4 °F 32.1 °F 35.6 °F 93% 30.24 in 4.0 mi NNE 6.9 mph - 0.02 in   Light Drizzle
2:55 AM 37.4 °F 30.3 °F 35.6 °F 93% 30.24 in 3.0 mi NE 10.4 mph - 0.03 in   Drizzle
3:15 AM 37.4 °F 30.8 °F 35.6 °F 93% 30.24 in 4.0 mi NE 9.2 mph - 0.02 in   Light Drizzle
3:35 AM 37.4 °F 30.8 °F 35.6 °F 93% 30.24 in 3.0 mi NE 9.2 mph - 0.02 in Rain Light Rain
3:55 AM 37.4 °F 30.3 °F 35.6 °F 93% 30.23 in 3.0 mi ENE 10.4 mph - 0.02 in   Overcast
4:15 AM 37.4 °F 31.4 °F 35.6 °F 93% 30.22 in 2.5 mi NE 8.1 mph - 0.01 in Rain Light Rain
4:35 AM 37.4 °F 32.1 °F 35.6 °F 93% 30.22 in 3.0 mi NE 6.9 mph - 0.01 in Rain Light Rain
4:55 AM 37.4 °F 31.4 °F 35.6 °F 93% 30.23 in 3.0 mi NE 8.1 mph - 0.01 in   Overcast
5:15 AM 37.4 °F 32.1 °F 35.6 °F 93% 30.24 in 4.0 mi NE 6.9 mph - N/A   Overcast
5:35 AM 37.4 °F 32.1 °F 35.6 °F 93% 30.23 in 3.0 mi NE 6.9 mph - 0.02 in Rain Rain
5:55 AM 37.4 °F 32.8 °F 35.6 °F 93% 30.24 in 4.0 mi NE 5.8 mph - 0.04 in Rain Light Rain
6:15 AM 37.4 °F 32.1 °F 35.6 °F 93% 30.24 in 5.0 mi NE 6.9 mph - 0.01 in Rain Light Rain
6:35 AM 37.4 °F 31.4 °F 35.6 °F 93% 30.25 in 5.0 mi NE 8.1 mph - 0.03 in Rain Light Rain
6:55 AM 37.4 °F 32.1 °F 35.6 °F 93% 30.25 in 7.0 mi NNE 6.9 mph - 0.04 in Rain Light Rain
7:15 AM 37.4 °F 31.4 °F 35.6 °F 93% 30.26 in 5.0 mi NNE 8.1 mph - 0.01 in Rain Light Rain
7:35 AM 37.4 °F 30.8 °F 35.6 °F 93% 30.26 in 4.0 mi NNE 9.2 mph - 0.01 in Rain Light Rain
7:55 AM 37.4 °F 32.1 °F 35.6 °F 93% 30.26 in 3.0 mi NNE 6.9 mph - 0.03 in Rain Light Rain
8:15 AM 37.4 °F 31.4 °F 35.6 °F 93% 30.26 in 3.0 mi NE 8.1 mph - N/A   Light Drizzle
8:35 AM 37.4 °F 31.4 °F 35.6 °F 93% 30.26 in 2.5 mi NNE 8.1 mph - N/A Rain Light Rain
8:55 AM 37.4 °F 31.4 °F 35.6 °F 93% 30.26 in 2.5 mi NE 8.1 mph - N/A   Overcast
9:15 AM 37.4 °F 30.8 °F 35.6 °F 93% 30.25 in 2.0 mi NE 9.2 mph - N/A   Overcast
9:35 AM 37.4 °F 32.1 °F 37.4 °F 100% 30.25 in 2.0 mi NE 6.9 mph - N/A   Light Drizzle
9:55 AM 37.4 °F 30.8 °F 37.4 °F 100% 30.24 in 2.0 mi NE 9.2 mph - N/A Rain Light Rain
10:15 AM 37.4 °F 31.4 °F 37.4 °F 100% 30.22 in 1.8 mi ENE 8.1 mph - N/A Rain Light Rain
10:35 AM 37.4 °F 30.3 °F 37.4 °F 100% 30.22 in 2.5 mi NE 10.4 mph - N/A Rain Light Rain
10:55 AM 37.4 °F 32.1 °F 35.6 °F 93% 30.21 in 4.0 mi ENE 6.9 mph - N/A   Overcast
11:15 AM 37.4 °F 30.3 °F 37.4 °F 100% 30.20 in 4.0 mi ENE 10.4 mph - N/A   Overcast
11:35 AM 39.2 °F 33.6 °F 37.4 °F 93% 30.19 in 3.0 mi ENE 8.1 mph - N/A   Overcast
11:55 AM 39.2 °F 33.6 °F 37.4 °F 93% 30.17 in 2.5 mi ENE 8.1 mph - N/A   Overcast
12:15 PM 39.2 °F 33.6 °F 37.4 °F 93% 30.16 in 3.0 mi ENE 8.1 mph - N/A   Overcast
12:35 PM 39.2 °F 35.0 °F 37.4 °F 93% 30.15 in 3.0 mi ENE 5.8 mph - N/A   Overcast
12:55 PM 39.2 °F 35.0 °F 37.4 °F 93% 30.15 in 5.0 mi NE 5.8 mph - N/A   Overcast
1:15 PM 39.2 °F 35.0 °F 37.4 °F 93% 30.15 in 4.0 mi ENE 5.8 mph - N/A   Overcast
1:35 PM 41.0 °F 37.1 °F 39.2 °F 93% 30.13 in 2.5 mi NE 5.8 mph - N/A   Overcast
1:55 PM 41.0 °F 39.0 °F 39.2 °F 93% 30.13 in 1.8 mi NNE 3.5 mph - N/A Rain Light Rain
2:15 PM 41.0 °F 38.0 °F 39.2 °F 93% 30.12 in 2.5 mi NNE 4.6 mph - N/A   Light Drizzle
2:35 PM 41.0 °F 39.0 °F 39.2 °F 93% 30.10 in 2.0 mi North 3.5 mph - N/A   Light Drizzle
2:55 PM 41.0 °F 39.0 °F 39.2 °F 93% 30.07 in 1.8 mi ENE 3.5 mph - 0.01 in Rain Light Rain
3:15 PM 42.8 °F 38.6 °F 39.2 °F 87% 30.05 in 1.5 mi ENE 6.9 mph - N/A   Overcast
3:35 PM 42.8 °F 39.3 °F 41.0 °F 93% 30.05 in 2.5 mi NE 5.8 mph - N/A   Overcast
3:55 PM 42.8 °F - 41.0 °F 93% 30.05 in 2.0 mi Calm Calm - N/A Rain Light Rain
4:15 PM 42.8 °F 40.1 °F 41.0 °F 93% 30.04 in 2.5 mi NNE 4.6 mph - N/A   Overcast
4:35 PM 42.8 °F 40.1 °F 41.0 °F 93% 30.03 in 2.5 mi North 4.6 mph - N/A Rain Light Rain
4:55 PM 42.8 °F - 41.0 °F 93% 30.03 in 1.5 mi Calm Calm - N/A   Overcast
5:15 PM 42.8 °F - 41.0 °F 93% 30.02 in 1.0 mi Calm Calm - N/A Rain Light Rain
5:35 PM 42.8 °F 41.1 °F 41.0 °F 93% 30.02 in 1.2 mi NNW 3.5 mph - 0.01 in Rain Light Rain
5:55 PM 42.8 °F 39.3 °F 41.0 °F 93% 30.02 in 1.2 mi NW 5.8 mph - 0.01 in   Light Drizzle
6:15 PM 42.8 °F 41.1 °F 39.2 °F 87% 30.00 in 1.5 mi NNE 3.5 mph - N/A   Light Drizzle
6:35 PM 41.0 °F 36.4 °F 39.2 °F 93% 30.01 in 2.5 mi NW 6.9 mph - 0.01 in   Overcast
6:55 PM 41.0 °F 37.1 °F 39.2 °F 93% 30.00 in 2.5 mi NW 5.8 mph - 0.01 in Rain Light Rain
7:15 PM 41.0 °F 36.4 °F 39.2 °F 93% 30.00 in 7.0 mi NW 6.9 mph - N/A Rain Light Rain
7:35 PM 39.2 °F 35.9 °F 39.2 °F 100% 30.00 in 5.0 mi NNW 4.6 mph - N/A Rain Light Rain
7:55 PM 39.2 °F 35.0 °F 37.4 °F 93% 30.00 in 7.0 mi NNW 5.8 mph - 0.01 in   Overcast
8:15 PM 39.2 °F 37.0 °F 37.4 °F 93% 29.99 in 10.0 mi North 3.5 mph - N/A   Light Drizzle
8:35 PM 39.2 °F 35.9 °F 37.4 °F 93% 29.99 in 7.0 mi WNW 4.6 mph - N/A   Overcast
8:55 PM 39.2 °F - 37.4 °F 93% 29.98 in 10.0 mi Calm Calm - N/A Rain Light Rain
9:15 PM 39.2 °F - 37.4 °F 93% 29.95 in 10.0 mi Calm Calm - N/A Rain Light Rain
9:35 PM 39.2 °F - 37.4 °F 93% 29.96 in 7.0 mi Calm Calm - 0.02 in Rain Rain
9:55 PM 39.2 °F 35.0 °F 37.4 °F 93% 29.98 in 10.0 mi West 5.8 mph - 0.03 in Rain Light Rain
10:15 PM 37.4 °F 34.9 °F 37.4 °F 100% 29.96 in 7.0 mi WNW 3.5 mph - 0.01 in Rain Light Rain
10:35 PM 37.4 °F - 37.4 °F 100% 29.95 in 7.0 mi Calm Calm - 0.02 in Rain Light Rain
10:55 PM 37.4 °F - 37.4 °F 100% 29.92 in 10.0 mi Calm Calm - 0.03 in Rain Light Rain
11:15 PM 37.4 °F - 37.4 °F 100% 29.91 in 10.0 mi Calm Calm - N/A   Light Drizzle
11:55 PM 37.4 °F - 37.4 °F 100% 29.88 in 10.0 mi Calm Calm - N/A   Mostly Cloudy